Northeast Philadelphia, PA

8:24 PM EDT on April 24, 2017 (GMT -0400)
Northeast Philadelphia

Weather History for KPNE - July, 2014

Change the Weather History Date:

Tuesday, July 22, 2014

  Actual Average Record
Temperature  
Mean Temperature 77 °F -  
Max Temperature 88 °F 83 °F 105 °F (2011)
Min Temperature 66 °F 64 °F 62 °F (2000)
Cooling Degree Days 12    
Growing Degree Days 27 (Base 50)    
Moisture  
Dew Point 62 °F    
Average Humidity 58    
Maximum Humidity 76    
Minimum Humidity 46    
Precipitation  
Precipitation 0.00 in - - ()
Sea Level Pressure  
Sea Level Pressure 30.15 in    
Wind  
Wind Speed 4 mph (SSW)    
Max Wind Speed 13 mph    
Max Gust Speed 20 mph    
Visibility 10 miles    
Events      
Averages and records for this station are not official NWS values.
T = Trace of Precipitation, MM = Missing Value Source: NWS Daily Summary

Daily Weather History Graph

Daily Weather History Graph

Search for Another Location

Airport or City:

Trip Planner

Search our weather history database for the weather conditions in past years. The results will help you decide how hot, cold, wet, or windy it might be!

Date:

Astronomy

Jul. 22, 2014 Rise Set
Actual Time 5:49 AM EDT 8:23 PM EDT
Civil Twilight 5:17 AM EDT 8:54 PM EDT
Nautical Twilight 4:38 AM EDT 9:33 PM EDT
Astronomical Twilight 3:55 AM EDT 10:16 PM EDT
Moon 2:20 AM EDT (7/22) 4:58 PM EDT (7/22)
Length of Visible Light 15h 36m
Length of Day
14h 33m
Waning Crescent, 16% of the Moon is Illuminated
Jul 22
Waning Crescent
Jul 26
New
Aug 3
First Quarter
Aug 10
Full
Aug 17
Last Quarter

Hourly Weather History & Observations

Time (EDT) Temp. Heat Index Dew Point Humidity Pressure Visibility Wind Dir Wind Speed Gust Speed Precip Events Conditions
12:54 AM 72.0 °F - 57.0 °F 59% 30.19 in 10.0 mi SW 3.5 mph - N/A   Clear
1:54 AM 71.1 °F - 57.0 °F 61% 30.19 in 10.0 mi SW 3.5 mph - N/A   Clear
2:54 AM 69.1 °F - 57.0 °F 65% 30.18 in 10.0 mi Calm Calm - N/A   Clear
3:54 AM 68.0 °F - 57.9 °F 70% 30.18 in 10.0 mi Calm Calm - N/A   Clear
4:54 AM 66.9 °F - 59.0 °F 76% 30.19 in 10.0 mi Calm Calm - N/A   Clear
5:54 AM 66.9 °F - 59.0 °F 76% 30.19 in 10.0 mi Calm Calm - N/A   Clear
6:54 AM 69.1 °F - 61.0 °F 75% 30.20 in 10.0 mi Calm Calm - N/A   Clear
7:54 AM 73.9 °F - 63.0 °F 68% 30.22 in 10.0 mi Calm Calm - N/A   Clear
8:54 AM 79.0 °F - 66.0 °F 64% 30.20 in 10.0 mi SSW 5.8 mph - N/A   Clear
9:54 AM 81.0 °F 83.0 °F 66.0 °F 60% 30.19 in 10.0 mi WSW 6.9 mph - N/A   Clear
10:54 AM 82.9 °F 84.6 °F 64.9 °F 54% 30.19 in 10.0 mi SSW 8.1 mph - N/A   Scattered Clouds
11:54 AM 82.9 °F 84.6 °F 64.9 °F 54% 30.17 in 10.0 mi SSW 5.8 mph - N/A   Overcast
12:54 PM 86.0 °F 87.3 °F 64.4 °F 48% 30.16 in 10.0 mi SW 8.1 mph - N/A   Mostly Cloudy
1:54 PM 87.1 °F 88.9 °F 64.9 °F 48% 30.15 in 10.0 mi SSW 6.9 mph - N/A   Scattered Clouds
2:54 PM 86.0 °F 87.6 °F 64.9 °F 49% 30.13 in 10.0 mi South 5.8 mph - N/A   Mostly Cloudy
3:54 PM 88.0 °F 89.6 °F 64.9 °F 46% 30.11 in 10.0 mi WSW 6.9 mph - N/A   Mostly Cloudy
4:54 PM 87.1 °F 88.9 °F 64.9 °F 48% 30.09 in 10.0 mi SSW 8.1 mph 17.3 mph N/A   Clear
5:54 PM 86.0 °F 87.6 °F 64.9 °F 49% 30.08 in 10.0 mi South 9.2 mph - N/A   Partly Cloudy
6:54 PM 84.9 °F 86.1 °F 64.0 °F 49% 30.09 in 10.0 mi SW 12.7 mph 19.6 mph N/A   Clear
7:54 PM 82.9 °F 84.4 °F 64.0 °F 53% 30.09 in 10.0 mi SW 10.4 mph - N/A   Clear
8:54 PM 81.0 °F 81.9 °F 62.1 °F 52% 30.09 in 10.0 mi SSW 8.1 mph - N/A   Clear
9:54 PM 78.8 °F - 60.8 °F 54% 30.10 in 10.0 mi SW 8.1 mph - N/A   Clear
10:54 PM 78.1 °F - 59.0 °F 52% 30.10 in 10.0 mi SSW 6.9 mph - N/A   Clear
11:54 PM 75.9 °F - 57.9 °F 54% 30.08 in 10.0 mi SW 5.8 mph - N/A   Clear